| time (UTC) | temp F | wind direction | speed knots | gust knots | rain 1hr in | rain 24hr in | rain mn in | humidity % | barometer mb |
| 20260502193025 | 61 | 298 | 3.5 | 10.4 | 0.00 | 0.00 | 0.00 | 35 | 1016.9 |
| 20260502191523 | 60 | 265 | 3.5 | 8.7 | 0.00 | 0.00 | 0.00 | 35 | 1017.2 |
| 20260502190027 | 60 | 272 | 2.6 | 8.7 | 0.00 | 0.00 | 0.00 | 35 | 1017.6 |
| 20260502184518 | 60 | 250 | 4.3 | 9.6 | 0.00 | 0.00 | 0.00 | 35 | 1017.8 |
| 20260502183017 | 59 | 273 | 3.5 | 10.4 | 0.00 | 0.00 | 0.00 | 35 | 1018.1 |
| 20260502181513 | 58 | 238 | 2.6 | 10.4 | 0.00 | 0.00 | 0.00 | 37 | 1018.3 |
| 20260502163057 | 54 | 276 | 5.2 | 10.4 | 0.00 | 0.00 | 0.00 | 39 | 1019.7 |
| 20260502161621 | 54 | 239 | 4.3 | 9.6 | 0.00 | 0.00 | 0.00 | 39 | 1019.9 |
| 20260502160116 | 53 | 232 | 6.1 | 10.4 | 0.00 | 0.00 | 0.00 | 40 | 1020.0 |
| 20260502151550 | 52 | 283 | 5.2 | 8.7 | 0.00 | 0.00 | 0.00 | 44 | 1020.5 |
| 20260502123027 | 36 | 229 | 2.6 | 3.5 | 0.00 | 0.00 | 0.00 | 77 | 1021.1 |
| 20260502121518 | 35 | 232 | 2.6 | 4.3 | 0.00 | 0.00 | 0.00 | 76 | 1021.0 |
| 20260502114516 | 35 | 231 | 3.5 | 4.3 | 0.00 | 0.00 | 0.00 | 73 | 1020.7 |
| 20260502113015 | 35 | 225 | 4.3 | 6.1 | 0.00 | 0.00 | 0.00 | 73 | 1020.7 |
| 20260502111514 | 34 | 230 | 3.5 | 5.2 | 0.00 | 0.00 | 0.00 | 73 | 1020.7 |
| 20260502110014 | 34 | 233 | 3.5 | 4.3 | 0.00 | 0.00 | 0.00 | 73 | 1020.8 |
| 20260502104510 | 35 | 234 | 3.5 | 4.3 | 0.00 | 0.00 | 0.00 | 73 | 1020.7 |
| 20260502103012 | 36 | 237 | 2.6 | 4.3 | 0.00 | 0.00 | 0.00 | 71 | 1020.7 |
| 20260502101508 | 36 | 243 | 2.6 | 3.5 | 0.00 | 0.00 | 0.00 | 70 | 1020.7 |
| 20260502091505 | 36 | 233 | 2.6 | 6.1 | 0.00 | 0.00 | 0.00 | 69 | 1020.6 |
| 20260502070045 | 39 | 233 | 2.6 | 4.3 | 0.00 | 0.00 | 0.00 | 62 | 1020.7 |
| 20260502064544 | 40 | 241 | 1.7 | 3.5 | 0.00 | 0.00 | 0.00 | 58 | 1021.0 |
| 20260502063053 | 40 | 314 | 0.9 | 2.6 | 0.00 | 0.00 | 0.00 | 58 | 1020.9 |
| 20260502061540 | 41 | 330 | 0.9 | 2.6 | 0.00 | 0.00 | 0.00 | 57 | 1020.9 |
| 20260502060042 | 40 | 330 | 0.9 | 2.6 | 0.00 | 0.00 | 0.00 | 58 | 1020.9 |
| 20260502054538 | 40 | 341 | 0.9 | 1.7 | 0.00 | 0.00 | 0.00 | 57 | 1020.9 |
| 20260502053038 | 42 | 341 | 0.9 | 1.7 | 0.00 | 0.00 | 0.00 | 54 | 1020.8 |
| 20260502051533 | 42 | 341 | 0.0 | 0.0 | 0.00 | 0.00 | 0.00 | 52 | 1020.7 |
| 20260502050034 | 43 | 341 | 0.0 | 0.0 | 0.00 | 0.00 | 0.00 | 51 | 1020.6 |
| 20260502044526 | 43 | 341 | 0.0 | 0.0 | 0.00 | 0.00 | 0.00 | 51 | 1020.6 |
| 20260502043026 | 43 | 341 | 0.9 | 1.7 | 0.00 | 0.00 | 0.00 | 50 | 1020.5 |
| 20260502041529 | 44 | 341 | 1.7 | 2.6 | 0.00 | 0.00 | 0.00 | 48 | 1020.5 |
| 20260502040025 | 45 | 341 | 1.7 | 2.6 | 0.00 | 0.00 | 0.00 | 48 | 1020.6 |
| 20260502034524 | 45 | 341 | 1.7 | 2.6 | 0.00 | 0.00 | 0.00 | 48 | 1020.6 |
| 20260502033026 | 45 | 342 | 1.7 | 3.5 | 0.00 | 0.00 | 0.00 | 48 | 1020.6 |
| 20260502031523 | 45 | 342 | 1.7 | 2.6 | 0.00 | 0.00 | 0.00 | 48 | 1020.6 |
| 20260502030029 | 45 | 342 | 1.7 | 3.5 | 0.00 | 0.00 | 0.00 | 48 | 1020.6 |
| 20260502024520 | 45 | 342 | 2.6 | 3.5 | 0.00 | 0.00 | 0.00 | 48 | 1020.4 |
| 20260502023021 | 45 | 342 | 2.6 | 3.5 | 0.00 | 0.00 | 0.00 | 49 | 1020.4 |
| 20260502021518 | 46 | 342 | 1.7 | 2.6 | 0.00 | 0.00 | 0.00 | 48 | 1020.3 |
| 20260502020017 | 47 | 342 | 1.7 | 3.5 | 0.00 | 0.00 | 0.00 | 47 | 1020.1 |
| 20260502014515 | 47 | 338 | 4.3 | 5.2 | 0.00 | 0.00 | 0.00 | 46 | 1019.9 |
| 20260502013014 | 47 | 343 | 1.7 | 3.5 | 0.00 | 0.00 | 0.00 | 46 | 1019.7 |
| 20260502011519 | 48 | 342 | 2.6 | 4.3 | 0.00 | 0.00 | 0.00 | 45 | 1019.6 |
| 20260502010019 | 48 | 346 | 3.5 | 7.0 | 0.00 | 0.00 | 0.00 | 43 | 1019.6 |
| 20260502004535 | 49 | 345 | 5.2 | 10.4 | 0.00 | 0.00 | 0.00 | 42 | 1019.3 |
| 20260502003010 | 50 | 359 | 2.6 | 5.2 | 0.00 | 0.00 | 0.00 | 41 | 1019.2 |
| 20260502001510 | 50 | 340 | 6.1 | 8.7 | 0.00 | 0.00 | 0.00 | 40 | 1019.2 |
| 20260502000009 | 50 | 343 | 5.2 | 8.7 | 0.00 | 0.00 | 0.00 | 40 | 1019.0 |
| 20260501234508 | 51 | 335 | 7.0 | 9.6 | 0.00 | 0.00 | 0.00 | 40 | 1019.2 |
| 20260501233008 | 51 | 1 | 4.3 | 7.0 | 0.00 | 0.00 | 0.00 | 41 | 1019.0 |
| 20260501231514 | 51 | 328 | 5.2 | 11.3 | 0.00 | 0.00 | 0.00 | 40 | 1019.0 |
| 20260501230007 | 51 | 348 | 3.5 | 6.1 | 0.00 | 0.00 | 0.00 | 41 | 1019.0 |
| 20260501224505 | 51 | 359 | 0.9 | 8.7 | 0.00 | 0.00 | 0.00 | 43 | 1019.1 |
| 20260501223009 | 51 | 347 | 7.0 | 10.4 | 0.00 | 0.00 | 0.00 | 40 | 1019.0 |
| 20260501221504 | 52 | 356 | 4.3 | 9.6 | 0.00 | 0.00 | 0.00 | 39 | 1018.9 |
| 20260501220004 | 52 | 1 | 3.5 | 7.0 | 0.00 | 0.00 | 0.00 | 41 | 1018.9 |
| 20260501214603 | 50 | 1 | 1.7 | 4.3 | 0.00 | 0.00 | 0.00 | 43 | 1019.0 |
| 20260501213102 | 51 | 352 | 7.0 | 10.4 | 0.00 | 0.00 | 0.00 | 40 | 1018.9 |
| 20260501211614 | 51 | 333 | 5.2 | 13.0 | 0.00 | 0.00 | 0.00 | 42 | 1018.9 |
| 20260501204558 | 51 | 354 | 7.8 | 11.3 | 0.00 | 0.00 | 0.00 | 42 | 1019.0 |
| 20260501203058 | 51 | 337 | 5.2 | 10.4 | 0.00 | 0.00 | 0.00 | 42 | 1019.2 |
| 20260501201600 | 51 | 359 | 5.2 | 9.6 | 0.00 | 0.00 | 0.00 | 43 | 1019.1 |
| 20260501200057 | 51 | 29 | 2.6 | 10.4 | 0.00 | 0.00 | 0.00 | 43 | 1019.1 |
| 20260501194559 | 51 | 355 | 5.2 | 9.6 | 0.00 | 0.00 | 0.00 | 42 | 1019.1 |